Погода в Сумкине

Россия / Тюменская область     58°06′31″N   68°19′30″E
темп.,
°C
ветер,
м/с
пор.,
м/с
влажн.,
%
обл.,
%
осадки,
мм/ч
давл.,
гПа
погр.,
м
24 января, вс
вс2423:00−39зсз11977 0.0 104018
02:00−38з11981 0.0 104018
05:00−39юз01981 0.0 104118
08:00−38ююз119823 0.0 104119
11:00−34ююв119718 0.0 104276
14:00−30юв239516 0.0 1041209
17:00−30юв379558 0.0 1040237
20:00−29юв3894100 0.0 1038276
25 января, пн
пн2523:00−28юв4898100 0.5 1036297
02:00−27юв4898100 0.7 1034317
05:00−26юв3796100 0.9 1033380
08:00−26юв3696100 0.1 1032307
11:00−25юв2496100 0.1 1033254
14:00−23юв2396100 0.0 1032264
17:00−23юв2498100 0.1 1033183
20:00−24юв2597100 0.0 1033168
26 января, вт
вт2623:00−23юв3597100 0.1 1032180
02:00−21ююв369898 0.3 1030231
05:00−20ююв479799 0.6 1029245
08:00−17ююв3697100 0.5 1027219
11:00−13ююв3595100 1.3 1026160
14:00−6ю369696 0.3 1024197
17:00−1зюз4109398 0.3 1023613
20:00−2зюз51094100 0.0 1023634
27 января, ср
ср2723:00−3зюз51092100 0.1 1022622
02:00−5зюз51192100 0.0 1022626
05:00−5з41092100 0.1 1022631
08:00−5зюз41093100 0.1 1022508
11:00−5з41093100 0.1 1022498
14:00−3зюз489393 0.0 1023546
17:00−4зюз489296 0.1 1023548
20:00−5зюз4893100 0.1 1023616
28 января, чт
чт2823:00−4зюз41094100 0.2 1022690
02:00−5з41093100 0.1 1023653
05:00−8з399599 0.2 1023286
08:00−11з379672 0.0 1025156
11:00−10зюз269574 0.0 1026225
14:00−8юз369598 0.0 1026275
17:00−8юз279699 0.0 1025255
20:00−7юз3896100 0.0 1025323